Location: Sternwarte_Laufen
(47.9344°N, 12.9346°E)
Time: 04:13:55
(UTC+02:00)

ISS - Pass Details

Date: 06 July 2025
Orbit: 413 x 417 km, 51.6° (Epoch: 12 July)

Event Time Altitude Azimuth Distance (km) Brightness Sun altitude
Rises 02:50:31 0° 285° (WNW) 2,358 0.0 -16.1°
Reaches altitude 10° 02:52:41 10° 292° (WNW) 1,495 -1.0 -15.9°
Maximum altitude 02:55:55 44° 6° (N) 591 -2.5 -15.7°
Drops below altitude 10° 02:59:09 10° 80° (E) 1,496 -0.5 -15.5°
Sets 03:01:18 0° 87° (E) 2,359 0.5 -15.3°
